Flag for U.S.A. Weather past 2 weeks in Temple, Texas, U.S.A.

Now
63 °F

Mild.


Feels Like: 63 °F
Forecast: 45 / 67 °F
Wind: N/A

Location: Fort Hood AAF Airport

Current Time: Jan 25, 2015 at 12:35:09 PM

Latest Report: Jan 25, 2015 at 11:58 AM


Visibility: N/A

Pressure: 30.08 "Hg

Humidity: 37%

Dew point: 36 °F

Location of TempleLocation

Historic Weather in Temple — Graph

°F

Temple temperature yesterday

Maximum temperature yesterday: 62 °F (at 3:58 PM)
Minimum temperature yesterday: 33 °F (at 5:58 AM)
Average temperature yesterday: 47 °F

Past Weeks' High & Low Weather Summary

 TemperatureHumidityPressure
High75 °F (Jan 20, 2:58 PM)100% (Jan 10, 8:03 PM)30.50 "Hg (Jan 10, 8:03 PM)
Low30 °F (Jan 10, 10:03 AM)14% (Jan 18, 3:58 PM)29.85 "Hg (Jan 20, 1:58 PM)
Average45 °F76%30.19 "Hg
* Reported Jan 10 10:03 AM — Jan 25 10:58 AM, Temple, Weather by CustomWeather, © 2014

Note: Actual official high and low records may vary slightly from our data, if they occured in-between our weather recording intervals... More about our weather records

Advertising

Temple weather history for previous 24 hours

 ConditionsComfort  
Time TempWeatherWind HumidityBarometerVisibility
10:58 AM
Jan 25
60 °FRefreshingly cool.N/A43%30.08 "HgN/A
9:58 AM56 °FRefreshingly cool.N/A49%30.07 "HgN/A
8:58 AM50 °FCool.N/A57%30.05 "HgN/A
7:58 AM46 °FCool.N/A67%30.03 "HgN/A
6:58 AM45 °FQuite cool.N/A68%30.01 "HgN/A
5:58 AM45 °FQuite cool.N/A69%29.98 "HgN/A
4:58 AM46 °FCool.N/A67%29.97 "HgN/A
3:58 AM45 °FCool.N/A70%30.00 "HgN/A
2:58 AM47 °FCool.N/A66%30.00 "HgN/A
1:58 AM47 °FCool.N/A65%30.01 "HgN/A
12:58 AM47 °FCool.N/A65%30.01 "HgN/A
11:58 PM
Jan 24
47 °FCool.N/A67%30.02 "HgN/A
10:58 PM50 °FCool.N/A59%30.05 "HgN/A
9:58 PM50 °FCool.N/A58%30.05 "HgN/A
8:58 PM51 °FCool.N/A56%30.06 "HgN/A
7:58 PM52 °FCool.N/A54%30.06 "HgN/A
6:58 PM53 °FCool.N/A51%30.07 "HgN/A
5:58 PM58 °FRefreshingly cool.N/A40%30.06 "HgN/A
4:58 PM62 °FRefreshingly cool.N/A33%30.07 "HgN/A
3:58 PM62 °FRefreshingly cool.N/A33%30.09 "HgN/A
2:58 PM61 °FRefreshingly cool.N/A34%30.10 "HgN/A
1:58 PM60 °FSunny.7 mphN/A30.12 "Hg10 mi
12:58 PM57 °FSunny.7 mph42%30.15 "Hg10 mi
Weather by CustomWeather, © 2014

See weather overviewHow to use our weather pages